TimeCST,TemperatureF,Dew PointF,Humidity,Sea Level PressureIn,VisibilityMPH,Wind Direction,Wind SpeedMPH,Gust SpeedMPH,PrecipitationIn,Events,Conditions,WindDirDegrees,DateUTC
12:15 AM,14.7,13.3,94,30.30,10.0,SW,4.6,-,N/A,,Clear,220,2013-03-02 06:15:00
12:35 AM,16.0,14.7,95,30.30,5.0,Calm,Calm,-,N/A,,Clear,0,2013-03-02 06:35:00
12:55 AM,16.0,14.2,93,30.29,7.0,South,3.5,-,N/A,,Clear,180,2013-03-02 06:55:00
1:15 AM,15.8,14.0,93,30.28,7.0,SSW,3.5,-,N/A,,Clear,200,2013-03-02 07:15:00
1:35 AM,14.0,12.0,92,30.30,10.0,Calm,Calm,-,N/A,,Clear,0,2013-03-02 07:35:00
1:55 AM,14.0,12.0,92,30.30,10.0,SW,4.6,-,N/A,,Clear,220,2013-03-02 07:55:00
2:15 AM,14.9,13.1,93,30.31,10.0,SSW,3.5,-,N/A,,Clear,210,2013-03-02 08:15:00
2:35 AM,14.9,12.9,92,30.30,10.0,SW,3.5,-,N/A,,Clear,220,2013-03-02 08:35:00
2:55 AM,14.4,12.4,92,30.28,10.0,South,3.5,-,N/A,,Clear,180,2013-03-02 08:55:00
3:15 AM,14.0,11.8,91,30.26,10.0,SSE,3.5,-,N/A,,Clear,150,2013-03-02 09:15:00
3:35 AM,12.2,10.4,92,30.26,10.0,SSW,3.5,-,N/A,,Clear,200,2013-03-02 09:35:00
3:55 AM,12.7,10.4,90,30.25,10.0,SSW,3.5,-,N/A,,Clear,200,2013-03-02 09:55:00
4:15 AM,12.0,9.9,91,30.26,10.0,South,4.6,-,N/A,,Clear,180,2013-03-02 10:15:00
4:35 AM,16.2,14.0,91,30.25,10.0,South,4.6,-,N/A,,Scattered Clouds,170,2013-03-02 10:35:00
4:55 AM,16.3,14.4,92,30.25,10.0,South,3.5,-,N/A,,Mostly Cloudy,180,2013-03-02 10:55:00
5:15 AM,18.5,16.7,93,30.25,10.0,South,4.6,-,N/A,,Scattered Clouds,190,2013-03-02 11:15:00
5:35 AM,19.4,17.6,93,30.25,10.0,SSE,6.9,-,N/A,,Mostly Cloudy,160,2013-03-02 11:35:00
5:55 AM,19.9,18.0,92,30.24,10.0,SSE,6.9,-,N/A,,Overcast,160,2013-03-02 11:55:00
6:15 AM,21.2,19.4,93,30.23,10.0,SSE,8.1,-,N/A,,Overcast,160,2013-03-02 12:15:00
6:35 AM,21.0,19.2,93,30.22,10.0,SSE,8.1,-,N/A,,Overcast,160,2013-03-02 12:35:00
6:55 AM,21.6,19.4,91,30.22,10.0,South,6.9,-,N/A,,Overcast,170,2013-03-02 12:55:00
7:15 AM,21.9,19.9,92,30.21,10.0,South,8.1,-,N/A,,Overcast,180,2013-03-02 13:15:00
7:35 AM,22.3,20.3,92,30.21,10.0,South,6.9,-,N/A,,Overcast,180,2013-03-02 13:35:00
7:55 AM,23.0,20.8,91,30.21,10.0,South,6.9,-,N/A,,Overcast,190,2013-03-02 13:55:00
8:15 AM,23.7,21.2,90,30.21,10.0,South,6.9,-,N/A,,Overcast,170,2013-03-02 14:15:00
8:35 AM,24.4,21.4,88,30.21,10.0,South,6.9,-,N/A,,Overcast,170,2013-03-02 14:35:00
8:55 AM,25.3,22.3,88,30.20,10.0,South,8.1,-,N/A,,Overcast,170,2013-03-02 14:55:00
9:15 AM,26.4,23.0,87,30.19,10.0,South,9.2,-,N/A,,Overcast,180,2013-03-02 15:15:00
9:35 AM,27.5,23.5,85,30.17,10.0,South,11.5,-,N/A,,Overcast,170,2013-03-02 15:35:00
9:55 AM,28.4,23.9,83,30.17,10.0,South,12.7,-,N/A,,Overcast,180,2013-03-02 15:55:00
10:15 AM,30.0,25.3,83,30.17,10.0,South,10.4,-,N/A,,Overcast,180,2013-03-02 16:15:00
10:35 AM,31.1,25.7,80,30.17,10.0,South,10.4,-,N/A,,Overcast,170,2013-03-02 16:35:00
10:55 AM,31.8,26.2,80,30.14,10.0,South,10.4,-,N/A,,Overcast,170,2013-03-02 16:55:00
11:15 AM,32.5,26.8,79,30.16,10.0,SSE,9.2,-,N/A,,Overcast,160,2013-03-02 17:15:00
11:35 AM,34.2,27.5,77,30.15,10.0,SSE,9.2,-,N/A,,Overcast,150,2013-03-02 17:35:00
11:55 AM,35.8,28.0,73,30.14,10.0,South,11.5,-,N/A,,Mostly Cloudy,170,2013-03-02 17:55:00
12:15 PM,36.7,28.2,71,30.14,10.0,South,10.4,-,N/A,,Scattered Clouds,180,2013-03-02 18:15:00
12:35 PM,37.6,28.9,71,30.12,10.0,South,12.7,-,N/A,,Scattered Clouds,170,2013-03-02 18:35:00
12:55 PM,38.3,29.5,71,30.11,10.0,South,10.4,-,N/A,,Scattered Clouds,170,2013-03-02 18:55:00
1:15 PM,39.6,29.5,67,30.10,10.0,South,12.7,-,N/A,,Mostly Cloudy,190,2013-03-02 19:15:00
1:35 PM,41.0,30.2,65,30.09,10.0,South,10.4,-,N/A,,Scattered Clouds,190,2013-03-02 19:35:00
1:55 PM,41.9,30.9,65,30.07,10.0,South,11.5,-,N/A,,Clear,170,2013-03-02 19:55:00
2:15 PM,42.6,31.6,65,30.07,10.0,SSW,11.5,-,N/A,,Clear,200,2013-03-02 20:15:00
2:35 PM,43.3,32.0,64,30.06,10.0,South,10.4,-,N/A,,Clear,190,2013-03-02 20:35:00
2:55 PM,44.6,32.4,62,30.05,10.0,SSW,10.4,-,N/A,,Clear,200,2013-03-02 20:55:00
3:15 PM,44.8,32.9,63,30.05,10.0,South,10.4,-,N/A,,Clear,190,2013-03-02 21:15:00
3:35 PM,45.5,33.4,63,30.04,10.0,South,9.2,-,N/A,,Clear,180,2013-03-02 21:35:00
3:55 PM,45.9,34.2,64,30.04,10.0,South,5.8,-,N/A,,Clear,190,2013-03-02 21:55:00
4:15 PM,46.0,34.7,65,30.04,10.0,South,6.9,-,N/A,,Clear,170,2013-03-02 22:15:00
4:35 PM,46.0,34.7,65,30.04,10.0,South,6.9,-,N/A,,Clear,170,2013-03-02 22:35:00
4:55 PM,45.0,34.7,67,30.04,10.0,SSE,6.9,-,N/A,,Clear,160,2013-03-02 22:55:00
5:15 PM,44.8,34.9,68,30.03,10.0,SSE,8.1,-,N/A,,Clear,160,2013-03-02 23:15:00
5:35 PM,43.7,34.7,71,30.03,10.0,SSE,3.5,-,N/A,,Clear,150,2013-03-02 23:35:00
5:55 PM,42.1,33.8,72,30.02,10.0,South,9.2,-,N/A,,Clear,170,2013-03-02 23:55:00
6:15 PM,40.6,33.8,77,30.02,10.0,SSE,8.1,-,N/A,,Clear,160,2013-03-03 00:15:00
6:35 PM,38.8,33.1,80,30.03,10.0,SSE,8.1,-,N/A,,Clear,160,2013-03-03 00:35:00
6:55 PM,38.3,32.7,80,30.03,10.0,SSE,9.2,-,N/A,,Clear,160,2013-03-03 00:55:00
7:15 PM,37.6,32.0,80,30.04,10.0,SSE,10.4,-,N/A,,Clear,160,2013-03-03 01:15:00
7:35 PM,36.5,32.0,84,30.03,10.0,South,10.4,-,N/A,,Clear,170,2013-03-03 01:35:00
7:55 PM,35.6,32.0,87,30.01,10.0,South,9.2,-,N/A,,Clear,170,2013-03-03 01:55:00
8:15 PM,34.7,31.6,89,30.02,10.0,SSE,6.9,-,N/A,,Clear,160,2013-03-03 02:15:00
8:35 PM,34.0,31.5,90,30.01,10.0,SSE,8.1,-,N/A,,Clear,160,2013-03-03 02:35:00
8:55 PM,33.8,31.1,90,30.00,10.0,South,8.1,-,N/A,,Clear,170,2013-03-03 02:55:00
9:15 PM,33.3,31.1,92,30.00,10.0,South,8.1,-,N/A,,Clear,170,2013-03-03 03:15:00
9:35 PM,32.9,30.9,92,30.00,10.0,South,5.8,-,N/A,,Clear,180,2013-03-03 03:35:00
9:55 PM,32.4,30.7,94,30.00,10.0,South,4.6,-,N/A,,Clear,170,2013-03-03 03:55:00
10:15 PM,32.4,30.7,94,29.99,10.0,SSE,4.6,-,N/A,,Clear,160,2013-03-03 04:15:00
10:35 PM,32.0,30.4,94,29.99,10.0,South,4.6,-,N/A,,Clear,170,2013-03-03 04:35:00
10:55 PM,32.0,30.6,94,29.99,10.0,SSE,4.6,-,N/A,,Clear,160,2013-03-03 04:55:00
11:15 PM,32.0,30.4,94,29.97,7.0,SSE,5.8,-,N/A,,Clear,160,2013-03-03 05:15:00
11:35 PM,32.0,30.4,94,29.96,7.0,SSE,5.8,-,N/A,,Clear,150,2013-03-03 05:35:00
11:55 PM,32.0,30.2,93,29.96,7.0,South,5.8,-,N/A,,Clear,170,2013-03-03 05:55:00